SCP
0 0 0 0 0 0 0 0 0 0 0 0 0 0 0 0 0 0 0 0 0 0 0 0 0 0 0 0 0 0 0 0 0 0 0 0 0 0
0 0 0 0 0 0 0 0 0 0 0 0 0 0 0 0 0 0 0 0 0 0 0 0 0 0 0 0 0 0 0 0 0 0 0 0 0 0
0 0 0 0 0 0 0 0 0 0 0 0 0 0 0 0 0 0 0 0 0 0 0 0 0 0 0 0 0 0 0 0 0 0 0 0 0 0
0 0 0 0 0 0 0 0 0 0 0 0 0 0 0 0 0 0 0 0 0 0 0 0 0 0 0 0 0 0 0 0 0 0 0 0 0 0
0 0 0 0 0 0 0 0 0 0 0 0 0 0 0 0 0 0 0 0 0 0 0 0 0 0 0 0 0 0 0 0 0 0 0 0 0 0
0 0 0 0 0 0 0 0 0 0 0 0 0 0 0 0 0 0 0 0 0 0 0 0 0 0 0 0 0 0 0 0 0 0 0 0 0 0
0 0 0 0 0 0 0 0 0 0 0 0 0 0 0 0 0 0 0 0 0 0 0 0 0 0 0 0 0 0 0 0 0 0 0 0 0 0
0 0 0 0 0 0 0 0 0 0 0 0 0 0 0 0 0 0 0 0 0 0 0 0 0 0 0 0 0 0 0 0 0 0 0 0 0 0
0 0 0 0 0 0 0 0 0 0 0 0 0 0 0 0 0 0 0 0 0 0 0 0 0 0 0 0 0 0 0 0 0 0 0 0 0 0
0 0 0 0 0 0 0 0 0 0 0 0 0 0 0 0 0 0 0 0 0 0 0 0 0 0 0 0 0 -0 -0 0 0 0 0 0 0 0
0 0 0 0 -0 0 0 0 0 0 0 0 0 0 0 0 0 0 0 0 0 0 0 0 0 0 0 0 0 0 0 0 0 0 0 0 0 0
0 0 0 0 0 0 0 0 0 0 0 0 0 0 0 0 0 0 0 0 0 0 0 0 0 0 -0 -0 -0 0 0 0 0 0 0 0 0 0
0 0 0 0 0 0 0 0 0 0 0 0 0 0 0 0 0 0 0 0 0 0 0 0 0 0 0 0 0 0 0 0 0 0 0 0 0 0
0 0 0 0 0 0 0 0 0 0 0 0 0 0 0 0 0 0 0 0 0 0 0 0 0 0 0 0 0 0 0 0 0 0 0 0 0 0
0 0 0 0 0 0 0 0 0 0 0 0 0 0 0 0 0 0 0 0 0 0 0 0 0 0 0 0 0 0 0 0 0 0 0 0 0 0
0 0 0 0 0 0 0 0 0 0 0 0 0 0 0 0 0 0 0 0 0 0 0 0 0 0 0 0 0 0 0 0 0 0 0 0 0 0
0 0 0 0 0 0 0 0 0 0 0 0 0 0 0 0 0 0 0 0 0 0 0 0 0 0 0 0 0 0 0 0 0 0 0 0 0 0
0 0 0 0 0 0 0 0 0 0 0 0 0 0 0 0 0 0 0 0 0 0 0 0 0 0 0 0 0 0 0 0 0 0 0 0 0 0
0 0 0 0 0 0 0 0 0 0 0 0 0 0 0 0 0 0 0 0 0 0 0 0 0 0 0 0 0 0 0 0 0 0 0 0 0 0
0 0 0 0 0 0 0 0 0 0 0 0 0 0 0 0 0 0 0 0 0 0 0 0 0 0 0 0 0 0 0 0 0 0 0 0 0 0
0 0 0 0 0 0 0 0 0 0 0 0 0 0 0 0 0 0 0 0 0 0 0 0 0 0 0 0 0 0 0 0 0 0 0 0 0 0
0 0 0 0 0 0 0 0 0 0 0 0 0 0 0 0 0 0 0 0 0 0 0 0 0 0 0 0 0 0 0 0 0 0 0 0 0 0
0 0 0 0 0 0 0 0 0 0 0 0 0 0 0 0 0 0 0 0 0 0 0 0 0 0 0 0 0 0 0 0 0 0 0 0 0 0
Wind_Speed_500mb
53 51 48 75 75 76 79 76 74 54 63 60 53 69 68 64 61 52 48 42 38 39 41 43 41 43 39 39 43 48 51 55 57 61 64 68 71 69
49 46 51 50 46 58 59 57 64 61 52 62 60 55 62 57 50 39 39 40 41 42 43 40 34 34 39 43 47 49 52 55 59 64 67 69 67 59
37 37 41 44 47 43 48 49 50 48 51 44 50 46 38 44 42 41 39 36 33 29 28 31 37 42 44 46 49 51 54 57 63 67 66 63 61 56
24 25 24 25 27 24 26 27 26 30 31 35 43 43 42 40 39 33 26 24 26 28 32 37 41 43 45 47 45 48 55 59 62 60 58 59 62 66
33 33 32 27 26 30 29 28 30 28 22 16 28 36 31 30 23 21 23 24 28 30 34 38 40 40 42 44 51 55 57 55 52 55 60 63 67 69
47 44 41 34 32 28 30 23 19 17 21 25 28 29 24 21 20 21 22 25 28 31 33 34 35 35 45 50 51 52 46 47 49 55 60 64 64 60
45 42 40 35 31 31 28 28 23 19 19 22 20 19 14 15 17 21 23 26 30 31 30 29 41 42 44 46 47 44 45 46 48 49 49 52 59 65
49 44 39 34 31 29 28 25 22 19 14 13 13 12 12 10 17 22 27 31 32 37 49 39 50 44 48 47 47 49 46 38 35 43 51 53 56 60
37 34 32 29 25 23 21 16 12 8 5 5 3 4 9 15 21 26 30 34 36 40 59 61 53 57 56 54 56 57 39 25 42 47 51 57 61 63
29 26 22 21 19 17 13 10 7 3 1 3 7 10 13 20 27 34 38 43 44 41 54 72 60 62 67 67 63 46 30 47 50 56 60 63 67 71
22 19 16 14 13 11 9 7 6 8 11 14 15 19 24 29 33 37 39 45 52 46 54 61 64 80 81 74 54 42 67 64 65 64 71 69 69 73
13 11 9 8 9 8 7 7 10 12 13 16 19 22 27 31 35 39 43 46 51 53 48 64 73 73 64 60 37 73 75 70 68 74 75 73 70 70
6 6 7 9 9 10 11 13 17 18 22 23 25 26 30 34 38 42 44 47 49 50 51 60 74 73 71 83 89 92 83 84 82 81 75 68 68 68
7 8 11 15 18 20 22 24 27 29 31 33 36 36 38 39 42 44 47 52 53 54 49 56 74 70 76 90 101 97 93 91 90 88 76 83 74 73
13 15 16 15 16 20 23 27 29 31 34 37 39 40 41 41 43 46 47 53 55 54 54 55 63 67 70 82 96 99 99 100 84 81 87 85 84 80
20 23 26 28 29 30 32 33 35 38 41 43 46 46 47 49 50 52 57 59 68 63 56 58 64 69 75 79 85 99 92 97 97 87 85 85 85 79
32 32 33 35 39 41 44 45 47 51 54 55 59 59 57 57 58 58 63 66 70 73 68 58 65 72 76 78 88 87 88 92 90 87 83 93 92 84
50 47 46 45 47 48 50 53 54 59 62 64 68 68 68 67 65 61 64 68 73 73 73 68 70 78 82 84 76 82 86 91 88 87 87 94 99 83
60 60 60 58 57 59 61 62 65 65 66 71 73 73 74 73 71 70 69 71 76 76 74 72 74 76 79 91 92 69 75 92 93 90 84 85 90 85
68 69 69 70 70 73 74 74 74 73 74 76 78 78 77 77 76 76 75 77 78 78 79 74 75 73 72 83 91 101 76 84 83 83 84 80 83 77
75 77 77 78 80 83 85 85 85 83 80 82 82 81 78 77 77 76 77 78 79 80 82 79 74 71 75 80 91 101 86 68 72 69 73 77 84 79
82 86 84 86 88 89 90 92 91 89 85 85 81 76 74 72 74 75 75 79 78 78 81 82 76 73 75 80 92 96 91 79 73 71 65 62 69 68
84 84 85 86 88 88 88 92 90 87 84 79 73 70 66 68 69 69 70 74 75 76 80 83 78 77 80 82 86 88 88 86 82 71 64 52 54 54
Wind_Direction_500mb
233 242 233 236 235 240 242 243 242 226 220 222 221 224 226 227 230 234 241 250 255 258 261 263 268 277 286 282 280 278 281 281 284 286 288 289 287 286
229 238 249 255 248 242 243 248 240 236 226 226 224 230 224 226 232 239 244 248 253 257 264 273 278 272 270 271 273 276 278 280 283 285 286 286 286 286
223 231 226 237 244 236 244 241 236 238 240 218 223 218 221 224 228 232 239 244 255 269 273 275 275 274 275 276 277 279 282 289 292 293 291 287 288 286
189 196 206 201 198 207 210 212 220 218 224 203 197 202 205 211 221 226 242 251 255 264 268 270 274 279 284 285 285 290 294 294 293 292 290 288 286 285
147 147 150 151 148 153 146 141 151 155 166 174 189 191 196 205 219 234 247 261 269 271 276 281 288 291 289 286 289 291 292 294 293 293 289 286 285 286
132 129 123 124 122 120 118 122 126 147 154 151 170 175 182 196 222 244 258 268 275 281 286 290 288 286 286 290 295 296 299 299 297 292 289 287 286 285
117 117 119 119 121 118 115 120 119 123 133 138 153 174 187 216 239 255 272 285 290 295 288 290 293 295 294 296 298 301 303 299 290 283 283 283 285 285
120 120 119 118 117 116 119 119 121 125 128 145 158 180 202 247 277 292 297 304 315 308 306 298 303 304 303 300 301 305 305 295 279 288 289 289 290 288
114 116 119 119 119 115 110 114 116 113 153 169 200 271 288 290 295 298 304 308 307 310 310 307 308 311 307 308 311 310 309 289 306 300 301 308 305 298
116 118 118 116 110 100 97 90 80 100 106 310 292 294 301 302 306 311 316 311 309 314 310 310 318 311 311 314 316 314 305 315 315 315 314 305 299 296
115 114 108 99 88 84 68 51 18 347 344 331 319 310 310 308 308 307 309 309 309 315 315 310 316 316 314 315 315 315 314 324 317 311 310 308 304 298
107 97 82 63 50 46 25 352 331 326 319 318 316 315 311 309 308 307 307 308 309 317 316 315 314 320 318 314 310 306 312 315 312 314 313 310 307 302
73 50 28 11 1 354 346 335 329 334 328 322 314 309 304 301 302 303 304 305 308 308 316 307 306 312 307 307 305 310 316 316 316 314 313 310 308 304
4 356 349 348 348 342 333 327 325 322 320 319 317 315 310 308 304 301 300 297 296 298 302 304 301 307 305 303 301 309 312 314 316 316 315 313 308 304
324 319 313 304 301 306 313 314 313 312 313 314 311 311 309 307 305 303 300 299 297 299 302 302 303 306 300 299 303 307 312 315 311 312 314 312 310 310
287 288 290 294 294 293 292 296 303 308 310 312 312 315 315 315 313 310 307 306 303 304 303 304 307 307 303 302 303 304 311 305 311 311 311 308 309 310
288 287 287 287 290 294 295 296 299 299 301 304 304 307 310 312 314 313 309 306 304 305 305 303 306 305 302 303 301 303 308 304 308 311 311 310 310 311
288 288 287 284 284 286 288 291 292 294 297 297 296 298 300 301 304 307 306 305 303 303 304 308 307 307 306 304 302 309 308 308 310 308 307 303 305 309
276 283 286 288 291 291 291 290 291 292 291 289 291 292 293 292 294 297 301 303 302 303 304 305 308 309 304 302 310 305 307 307 303 303 309 304 301 305
277 282 286 290 291 291 292 292 292 291 289 289 289 288 288 288 289 292 295 300 302 303 301 305 308 310 304 303 303 305 315 309 306 305 308 307 301 304
281 283 286 288 290 292 292 293 292 291 290 287 286 286 287 286 285 289 291 296 299 300 300 305 311 309 309 305 296 307 313 311 305 294 301 296 298 303
282 284 288 290 291 291 292 292 290 290 289 288 288 287 286 284 283 287 287 292 295 298 301 307 310 309 307 303 303 307 311 314 313 312 305 279 278 275
282 283 284 286 288 289 289 290 290 289 289 290 289 288 287 285 285 283 285 291 296 299 303 306 309 308 307 306 305 306 309 312 316 317 310 315 311 302
Wind_Speed_850mb
53 51 48 75 75 76 79 76 74 54 63 60 53 69 68 64 61 52 48 42 38 39 41 43 41 43 39 39 43 48 51 55 57 61 64 68 71 69
49 46 51 50 46 58 59 57 64 61 52 62 60 55 62 57 50 39 39 40 41 42 43 40 34 34 39 43 47 49 52 55 59 64 67 69 67 59
37 37 41 44 47 43 48 49 50 48 51 44 50 46 38 44 42 41 39 36 33 29 28 31 37 42 44 46 49 51 54 57 63 67 66 63 61 56
24 25 24 25 27 24 26 27 26 30 31 35 43 43 42 40 39 33 26 24 26 28 32 37 41 43 45 47 45 48 55 59 62 60 58 59 62 66
33 33 32 27 26 30 29 28 30 28 22 16 28 36 31 30 23 21 23 24 28 30 34 38 40 40 42 44 51 55 57 55 52 55 60 63 67 69
47 44 41 34 32 28 30 23 19 17 21 25 28 29 24 21 20 21 22 25 28 31 33 34 35 35 45 50 51 52 46 47 49 55 60 64 64 60
45 42 40 35 31 31 28 28 23 19 19 22 20 19 14 15 17 21 23 26 30 31 30 29 41 42 44 46 47 44 45 46 48 49 49 52 59 65
49 44 39 34 31 29 28 25 22 19 14 13 13 12 12 10 17 22 27 31 32 37 49 39 50 44 48 47 47 49 46 38 35 43 51 53 56 60
37 34 32 29 25 23 21 16 12 8 5 5 3 4 9 15 21 26 30 34 36 40 59 61 53 57 56 54 56 57 39 25 42 47 51 57 61 63
29 26 22 21 19 17 13 10 7 3 1 3 7 10 13 20 27 34 38 43 44 41 54 72 60 62 67 67 63 46 30 47 50 56 60 63 67 71
22 19 16 14 13 11 9 7 6 8 11 14 15 19 24 29 33 37 39 45 52 46 54 61 64 80 81 74 54 42 67 64 65 64 71 69 69 73
13 11 9 8 9 8 7 7 10 12 13 16 19 22 27 31 35 39 43 46 51 53 48 64 73 73 64 60 37 73 75 70 68 74 75 73 70 70
6 6 7 9 9 10 11 13 17 18 22 23 25 26 30 34 38 42 44 47 49 50 51 60 74 73 71 83 89 92 83 84 82 81 75 68 68 68
7 8 11 15 18 20 22 24 27 29 31 33 36 36 38 39 42 44 47 52 53 54 49 56 74 70 76 90 101 97 93 91 90 88 76 83 74 73
13 15 16 15 16 20 23 27 29 31 34 37 39 40 41 41 43 46 47 53 55 54 54 55 63 67 70 82 96 99 99 100 84 81 87 85 84 80
20 23 26 28 29 30 32 33 35 38 41 43 46 46 47 49 50 52 57 59 68 63 56 58 64 69 75 79 85 99 92 97 97 87 85 85 85 79
32 32 33 35 39 41 44 45 47 51 54 55 59 59 57 57 58 58 63 66 70 73 68 58 65 72 76 78 88 87 88 92 90 87 83 93 92 84
50 47 46 45 47 48 50 53 54 59 62 64 68 68 68 67 65 61 64 68 73 73 73 68 70 78 82 84 76 82 86 91 88 87 87 94 99 83
60 60 60 58 57 59 61 62 65 65 66 71 73 73 74 73 71 70 69 71 76 76 74 72 74 76 79 91 92 69 75 92 93 90 84 85 90 85
68 69 69 70 70 73 74 74 74 73 74 76 78 78 77 77 76 76 75 77 78 78 79 74 75 73 72 83 91 101 76 84 83 83 84 80 83 77
75 77 77 78 80 83 85 85 85 83 80 82 82 81 78 77 77 76 77 78 79 80 82 79 74 71 75 80 91 101 86 68 72 69 73 77 84 79
82 86 84 86 88 89 90 92 91 89 85 85 81 76 74 72 74 75 75 79 78 78 81 82 76 73 75 80 92 96 91 79 73 71 65 62 69 68
84 84 85 86 88 88 88 92 90 87 84 79 73 70 66 68 69 69 70 74 75 76 80 83 78 77 80 82 86 88 88 86 82 71 64 52 54 54
Wind_Direction_850mb
233 242 233 236 235 240 242 243 242 226 220 222 221 224 226 227 230 234 241 250 255 258 261 263 268 277 286 282 280 278 281 281 284 286 288 289 287 286
229 238 249 255 248 242 243 248 240 236 226 226 224 230 224 226 232 239 244 248 253 257 264 273 278 272 270 271 273 276 278 280 283 285 286 286 286 286
223 231 226 237 244 236 244 241 236 238 240 218 223 218 221 224 228 232 239 244 255 269 273 275 275 274 275 276 277 279 282 289 292 293 291 287 288 286
189 196 206 201 198 207 210 212 220 218 224 203 197 202 205 211 221 226 242 251 255 264 268 270 274 279 284 285 285 290 294 294 293 292 290 288 286 285
147 147 150 151 148 153 146 141 151 155 166 174 189 191 196 205 219 234 247 261 269 271 276 281 288 291 289 286 289 291 292 294 293 293 289 286 285 286
132 129 123 124 122 120 118 122 126 147 154 151 170 175 182 196 222 244 258 268 275 281 286 290 288 286 286 290 295 296 299 299 297 292 289 287 286 285
117 117 119 119 121 118 115 120 119 123 133 138 153 174 187 216 239 255 272 285 290 295 288 290 293 295 294 296 298 301 303 299 290 283 283 283 285 285
120 120 119 118 117 116 119 119 121 125 128 145 158 180 202 247 277 292 297 304 315 308 306 298 303 304 303 300 301 305 305 295 279 288 289 289 290 288
114 116 119 119 119 115 110 114 116 113 153 169 200 271 288 290 295 298 304 308 307 310 310 307 308 311 307 308 311 310 309 289 306 300 301 308 305 298
116 118 118 116 110 100 97 90 80 100 106 310 292 294 301 302 306 311 316 311 309 314 310 310 318 311 311 314 316 314 305 315 315 315 314 305 299 296
115 114 108 99 88 84 68 51 18 347 344 331 319 310 310 308 308 307 309 309 309 315 315 310 316 316 314 315 315 315 314 324 317 311 310 308 304 298
107 97 82 63 50 46 25 352 331 326 319 318 316 315 311 309 308 307 307 308 309 317 316 315 314 320 318 314 310 306 312 315 312 314 313 310 307 302
73 50 28 11 1 354 346 335 329 334 328 322 314 309 304 301 302 303 304 305 308 308 316 307 306 312 307 307 305 310 316 316 316 314 313 310 308 304
4 356 349 348 348 342 333 327 325 322 320 319 317 315 310 308 304 301 300 297 296 298 302 304 301 307 305 303 301 309 312 314 316 316 315 313 308 304
324 319 313 304 301 306 313 314 313 312 313 314 311 311 309 307 305 303 300 299 297 299 302 302 303 306 300 299 303 307 312 315 311 312 314 312 310 310
287 288 290 294 294 293 292 296 303 308 310 312 312 315 315 315 313 310 307 306 303 304 303 304 307 307 303 302 303 304 311 305 311 311 311 308 309 310
288 287 287 287 290 294 295 296 299 299 301 304 304 307 310 312 314 313 309 306 304 305 305 303 306 305 302 303 301 303 308 304 308 311 311 310 310 311
288 288 287 284 284 286 288 291 292 294 297 297 296 298 300 301 304 307 306 305 303 303 304 308 307 307 306 304 302 309 308 308 310 308 307 303 305 309
276 283 286 288 291 291 291 290 291 292 291 289 291 292 293 292 294 297 301 303 302 303 304 305 308 309 304 302 310 305 307 307 303 303 309 304 301 305
277 282 286 290 291 291 292 292 292 291 289 289 289 288 288 288 289 292 295 300 302 303 301 305 308 310 304 303 303 305 315 309 306 305 308 307 301 304
281 283 286 288 290 292 292 293 292 291 290 287 286 286 287 286 285 289 291 296 299 300 300 305 311 309 309 305 296 307 313 311 305 294 301 296 298 303
282 284 288 290 291 291 292 292 290 290 289 288 288 287 286 284 283 287 287 292 295 298 301 307 310 309 307 303 303 307 311 314 313 312 305 279 278 275
282 283 284 286 288 289 289 290 290 289 289 290 289 288 287 285 285 283 285 291 296 299 303 306 309 308 307 306 305 306 309 312 316 317 310 315 311 302